Location: Korczew
(51.3586°N, 19.4491°E)
Time: 17:41:15
(UTC+00:00)

ATLAS 3B R/B - Pass Details

Date: 19 May 2025
Orbit: 935 x 1258 km, 63.8° (Epoch: 20 June)

Event Time Altitude Azimuth Distance (km) Brightness Sun altitude
Exits shadow 21:30:07 24° 177° (S) 2,232 3.8 -17.1°
Maximum altitude 21:34:18 46° 119° (ESE) 1,586 3.3 -17.3°
Drops below altitude 10° 21:41:38 10° 50° (NE) 3,231 5.5 -17.6°
Sets 21:44:35 0° 44° (NE) 4,215 6.3 -17.7°
